When you browse on this site, cookies collect data to enhance your experience and personalize the content and advertising you see.
Visit our Privacy Policy to learn more. By continuing to use the site, you agree to this use of cookies and data.
  • In Sweden
  • List of Countries
  • For 7 days
  • Water Temperature
  • Weather Map
  • Weather Widgets
  • user-avatar
    Login

    Hourly Weather Wadzhda

    Today, 26 February, Wednesday

    Time Temperature Precipitation Wind Pressure Humidity
    00:00 +12°C° 0 mm 2 mps 716 mmHg 63%
    01:00 +12°C° 0 mm 2 mps 716 mmHg 63%
    02:00 +12°C° 0 mm 2 mps 715 mmHg 63%
    03:00 +10°C° 0 mm 2 mps 715 mmHg 63%
    04:00 +10°C° 0 mm 2 mps 715 mmHg 65%
    05:00 +10°C° 0 mm 2 mps 715 mmHg 67%
    06:00 +9°C° 0 mm 2 mps 715 mmHg 70%
    07:00 +12°C° 0 mm 2 mps 715 mmHg 64%
    08:00 +14°C° 0 mm 2 mps 716 mmHg 58%
    09:00 +14°C° 0 mm 3 mps 717 mmHg 52%
    10:00 +17°C° 0 mm 4 mps 717 mmHg 47%
    11:00 +17°C° 0 mm 5 mps 717 mmHg 42%
    12:00 +19°C° 0 mm 6 mps 717 mmHg 37%
    13:00 +19°C° 0 mm 6 mps 716 mmHg 37%
    14:00 +19°C° 0 mm 6 mps 716 mmHg 36%
    15:00 +18°C° 0 mm 7 mps 715 mmHg 36%
    16:00 +17°C° 0 mm 5 mps 715 mmHg 47%
    17:00 +15°C° 0 mm 4 mps 715 mmHg 57%
    18:00 +14°C° 0 mm 2 mps 715 mmHg 68%
    19:00 +13°C° 0 mm 2 mps 715 mmHg 70%
    20:00 +13°C° 0 mm 1 mps 715 mmHg 72%
    21:00 +11°C° 0 mm 0 mps 716 mmHg 74%
    22:00 +10°C° 0 mm 0 mps 716 mmHg 72%
    23:00 +10°C° 0 mm 0 mps 716 mmHg 69%

    Tomorrow, 27 February, Thursday

    Time Temperature Precipitation Wind Pressure Humidity
    00:00 +10°C° 0 mm 0 mps 716 mmHg 66%
    01:00 +10°C° 0 mm 0 mps 715 mmHg 66%
    02:00 +10°C° 0 mm 1 mps 715 mmHg 65%
    03:00 +10°C° 0 mm 1 mps 715 mmHg 65%
    04:00 +10°C° 0 mm 1 mps 715 mmHg 66%
    05:00 +10°C° 0 mm 1 mps 715 mmHg 67%
    06:00 +10°C° 0 mm 1 mps 715 mmHg 69%
    07:00 +12°C° 0 mm 1 mps 716 mmHg 64%
    08:00 +14°C° 0 mm 2 mps 717 mmHg 59%
    09:00 +16°C° 0 mm 2 mps 718 mmHg 54%
    10:00 +17°C° 0 mm 2 mps 718 mmHg 48%
    11:00 +18°C° 0 mm 3 mps 718 mmHg 43%
    12:00 +19°C° 0 mm 3 mps 718 mmHg 37%
    13:00 +20°C° 0 mm 3 mps 718 mmHg 37%
    14:00 +20°C° 0 mm 3 mps 717 mmHg 37%
    15:00 +20°C° 0 mm 3 mps 717 mmHg 37%
    16:00 +19°C° 0 mm 2 mps 717 mmHg 46%
    17:00 +17°C° 0 mm 2 mps 716 mmHg 55%
    18:00 +15°C° 0 mm 1 mps 716 mmHg 64%
    19:00 +14°C° 0 mm 1 mps 716 mmHg 66%
    20:00 +14°C° 0 mm 1 mps 717 mmHg 68%
    21:00 +12°C° 0 mm 0 mps 717 mmHg 71%
    22:00 +11°C° 0 mm 0 mps 717 mmHg 70%
    23:00 +11°C° 0 mm 0 mps 717 mmHg 69%

    Day after tomorrow, 28 February, Friday

    Time Temperature Precipitation Wind Pressure Humidity
    00:00 +10°C° 0 mm 0 mps 716 mmHg 69%
    01:00 +10°C° 0 mm 0 mps 716 mmHg 67%
    02:00 +10°C° 0 mm 0 mps 716 mmHg 65%
    03:00 +11°C° 0 mm 1 mps 715 mmHg 64%
    04:00 +11°C° 0 mm 1 mps 715 mmHg 62%
    05:00 +11°C° 0 mm 1 mps 715 mmHg 61%
    06:00 +11°C° 0 mm 1 mps 715 mmHg 59%
    07:00 +13°C° 0 mm 1 mps 716 mmHg 51%
    08:00 +16°C° 0 mm 2 mps 716 mmHg 44%
    09:00 +18°C° 0 mm 2 mps 717 mmHg 37%
    10:00 +20°C° 0 mm 2 mps 717 mmHg 32%
    11:00 +23°C° 0 mm 2 mps 717 mmHg 28%
    12:00 +25°C° 0 mm 2 mps 716 mmHg 24%
    13:00 +25°C° 0 mm 2 mps 716 mmHg 24%
    14:00 +26°C° 0 mm 3 mps 715 mmHg 24%
    15:00 +27°C° 0 mm 3 mps 715 mmHg 24%
    16:00 +24°C° 0 mm 2 mps 714 mmHg 33%
    17:00 +20°C° 0 mm 2 mps 714 mmHg 42%
    18:00 +19°C° 0 mm 1 mps 714 mmHg 51%
    19:00 +18°C° 0 mm 1 mps 714 mmHg 50%
    20:00 +17°C° 0 mm 2 mps 714 mmHg 49%
    21:00 +17°C° 0 mm 2 mps 715 mmHg 48%
    22:00 +17°C° 0 mm 2 mps 715 mmHg 46%
    23:00 +17°C° 0 mm 3 mps 715 mmHg 43%

    29 February, Saturday

    Time Temperature Precipitation Wind Pressure Humidity
    00:00 +17°C° 0 mm 4 mps 715 mmHg 41%
    01:00 +17°C° 0 mm 4 mps 714 mmHg 43%
    02:00 +17°C° 0 mm 4 mps 714 mmHg 44%
    03:00 +17°C° 0 mm 4 mps 714 mmHg 46%
    04:00 +16°C° 0 mm 3 mps 714 mmHg 48%
    05:00 +16°C° 0 mm 3 mps 714 mmHg 49%
    06:00 +14°C° 0 mm 3 mps 714 mmHg 51%
    07:00 +17°C° 0 mm 3 mps 714 mmHg 48%
    08:00 +18°C° 0 mm 4 mps 715 mmHg 45%
    09:00 +19°C° 0 mm 4 mps 715 mmHg 43%
    10:00 +20°C° 0 mm 5 mps 715 mmHg 39%
    11:00 +21°C° 0 mm 7 mps 715 mmHg 36%
    12:00 +22°C° 0 mm 8 mps 716 mmHg 32%
    13:00 +22°C° 0 mm 7 mps 715 mmHg 33%
    14:00 +22°C° 0 mm 6 mps 715 mmHg 35%
    15:00 +22°C° 0 mm 6 mps 714 mmHg 36%
    16:00 +20°C° 0 mm 5 mps 714 mmHg 45%
    17:00 +18°C° 0 mm 3 mps 714 mmHg 53%
    18:00 +17°C° 0 mm 2 mps 714 mmHg 62%
    19:00 +16°C° 0 mm 2 mps 714 mmHg 67%
    20:00 +15°C° 0 mm 1 mps 715 mmHg 72%
    21:00 +13°C° 0 mm 0 mps 715 mmHg 77%
    22:00 +14°C° 0 mm 1 mps 715 mmHg 74%
    23:00 +14°C° 0 mm 1 mps 715 mmHg 71%

    1 March, Sunday

    Time Temperature Precipitation Wind Pressure Humidity
    00:00 +14°C° 0 mm 1 mps 715 mmHg 68%
    01:00 +14°C° 0 mm 2 mps 715 mmHg 64%
    02:00 +14°C° 0 mm 2 mps 714 mmHg 59%
    03:00 +13°C° 0 mm 2 mps 714 mmHg 55%
    04:00 +13°C° 0 mm 2 mps 714 mmHg 62%
    05:00 +12°C° 0 mm 2 mps 714 mmHg 68%
    06:00 +11°C° 0 mm 1 mps 714 mmHg 75%
    07:00 +13°C° 0 mm 1 mps 714 mmHg 66%
    08:00 +15°C° 0 mm 2 mps 715 mmHg 57%
    09:00 +17°C° 0 mm 2 mps 715 mmHg 49%
    10:00 +18°C° 0 mm 3 mps 715 mmHg 44%
    11:00 +20°C° 0 mm 4 mps 715 mmHg 40%
    12:00 +21°C° 0 mm 5 mps 715 mmHg 35%
    13:00 +21°C° 0 mm 5 mps 715 mmHg 37%
    14:00 +21°C° 0 mm 5 mps 714 mmHg 39%
    15:00 +21°C° 0 mm 5 mps 713 mmHg 41%
    16:00 +19°C° 0 mm 4 mps 713 mmHg 52%
    17:00 +17°C° 0 mm 3 mps 713 mmHg 63%
    18:00 +15°C° 0 mm 1 mps 713 mmHg 74%
    19:00 +15°C° 0 mm 1 mps 713 mmHg 76%
    20:00 +13°C° 0 mm 0 mps 713 mmHg 78%
    21:00 +13°C° 0 mm 0 mps 714 mmHg 80%
    22:00 +12°C° 0 mm 0 mps 713 mmHg 79%
    23:00 +13°C° 0 mm 1 mps 713 mmHg 79%

    2 March, Monday

    Time Temperature Precipitation Wind Pressure Humidity
    00:00 +13°C° 0 mm 1 mps 713 mmHg 78%
    01:00 +13°C° 0 mm 1 mps 712 mmHg 77%
    02:00 +13°C° 0 mm 1 mps 712 mmHg 75%
    03:00 +12°C° 0 mm 1 mps 711 mmHg 74%
    04:00 +13°C° 0 mm 2 mps 711 mmHg 72%
    05:00 +13°C° 0 mm 2 mps 711 mmHg 70%
    06:00 +12°C° 0 mm 3 mps 711 mmHg 69%
    07:00 +14°C° 0 mm 4 mps 712 mmHg 63%
    08:00 +15°C° 0 mm 5 mps 712 mmHg 57%
    09:00 +17°C° 0 mm 6 mps 713 mmHg 50%
    10:00 +18°C° 0 mm 8 mps 713 mmHg 48%
    11:00 +19°C° 0 mm 9 mps 713 mmHg 45%
    12:00 +21°C° 0 mm 10 mps 713 mmHg 42%
    13:00 +21°C° 0 mm 10 mps 712 mmHg 41%
    14:00 +21°C° 0 mm 11 mps 711 mmHg 40%
    15:00 +22°C° 0 mm 11 mps 711 mmHg 38%
    16:00 +19°C° 0 mm 10 mps 711 mmHg 44%
    17:00 +18°C° 0 mm 8 mps 711 mmHg 50%
    18:00 +16°C° 0 mm 7 mps 711 mmHg 56%
    19:00 +15°C° 0 mm 6 mps 711 mmHg 65%
    20:00 +14°C° 0 mm 5 mps 712 mmHg 74%
    21:00 +13°C° 0 mm 4 mps 712 mmHg 83%
    22:00 +13°C° 0 mm 4 mps 712 mmHg 84%
    23:00 +13°C° 0 mm 4 mps 713 mmHg 84%
    Show more